Weather History for Marion, VA

Change the Weather History Date:

Friday, January 13, 2012

  Actual Average (KGEV) Record (KGEV)
Temperature  
Mean Temperature 28 °F -  
Max Temperature 32 °F 39 °F 65 °F (2013)
Min Temperature 23 °F 21 °F -5 °F (1973)
Degree Days  
Heating Degree Days 38    
Moisture  
Dew Point 18 °F    
Average Humidity 73    
Maximum Humidity 86    
Minimum Humidity 64    
Precipitation  
Precipitation 0.00 in - - ()
Sea Level Pressure  
Sea Level Pressure 29.80 in    
Wind  
Wind Speed 25 mph (West)    
Max Wind Speed 34 mph    
Max Gust Speed 45 mph    
Visibility 10 miles    
Events Snow    
Averages and records for this station are not official NWS values.
T = Trace of Precipitation, MM = Missing Value Source: NWS Daily Summary

Daily Weather History Graph

Daily Weather History Graph

Search for Another Location

Airport:

Trip Planner

Search our weather history database for the weather conditions in past years. The results will help you decide how hot, cold, wet, or windy it might be!

Date:

Astronomy

Jan. 13, 2012 Rise Set
Actual Time 7:38 AM EST 5:30 PM EST
Civil Twilight 7:09 AM EST 5:58 PM EST
Nautical Twilight 6:37 AM EST 6:30 PM EST
Astronomical Twilight 6:06 AM EST 7:01 PM EST
Moon 10:32 PM EST (1/13) 9:59 AM EST (1/13)
Length of Visible Light 10h 48m
Length of Day
9h 52m
Waning Gibbous, 79% of the Moon is Illuminated
Jan 13
Waning Gibbous
Jan 16
Last Quarter
Jan 23
New
Jan 30
First Quarter
Feb 7
Full

Hourly Weather History & Observations

Time (EST) Temp. Windchill Dew Point Humidity Pressure Visibility Wind Dir Wind Speed Gust Speed Precip Events Conditions
12:15 AM 32.0 °F 19.5 °F 23.0 °F 69% 29.59 in 10.0 mi WSW 21.9 mph 28.8 mph N/A   Overcast
12:35 AM 30.2 °F 16.2 °F 21.2 °F 69% 29.60 in 10.0 mi WSW 25.3 mph 35.7 mph N/A   Overcast
12:55 AM 30.2 °F 16.5 °F 19.4 °F 64% 29.61 in 10.0 mi WSW 24.2 mph 36.8 mph N/A   Overcast
1:15 AM 28.4 °F 13.3 °F 19.4 °F 69% 29.62 in 10.0 mi WSW 27.6 mph 42.6 mph N/A   Overcast
1:35 AM 28.4 °F 14.7 °F 19.4 °F 69% 29.64 in 10.0 mi West 21.9 mph 32.2 mph N/A   Overcast
1:55 AM 26.6 °F 11.4 °F 17.6 °F 69% 29.65 in 10.0 mi WSW 25.3 mph 35.7 mph N/A   Overcast
2:15 AM 26.6 °F 12.7 °F 17.6 °F 69% 29.65 in 10.0 mi WSW 20.7 mph 27.6 mph N/A   Overcast
2:35 AM 26.6 °F 14.7 °F 17.6 °F 69% 29.66 in 10.0 mi WSW 15.0 mph 25.3 mph N/A   Overcast
2:55 AM 26.6 °F 12.4 °F 17.6 °F 69% 29.65 in 10.0 mi West 21.9 mph 31.1 mph N/A   Overcast
3:15 AM 26.6 °F 13.1 °F 17.6 °F 69% 29.65 in 10.0 mi West 19.6 mph 27.6 mph N/A Snow Light Snow
3:35 AM 26.6 °F 12.7 °F 19.4 °F 74% 29.65 in 10.0 mi West 20.7 mph 35.7 mph N/A   Overcast
3:55 AM 26.6 °F 13.4 °F 19.4 °F 74% 29.65 in 10.0 mi West 18.4 mph 29.9 mph N/A Snow Light Snow
4:15 AM 26.6 °F 11.4 °F 17.6 °F 69% 29.65 in 10.0 mi West 25.3 mph 36.8 mph N/A Snow Light Snow
4:35 AM 26.6 °F 9.8 °F 17.6 °F 69% 29.65 in 10.0 mi West 32.2 mph 41.4 mph N/A   Overcast
4:55 AM 26.6 °F 10.0 °F 17.6 °F 69% 29.65 in 10.0 mi West 31.1 mph 43.7 mph N/A   Overcast
5:15 AM 24.8 °F 8.1 °F 14.0 °F 64% 29.66 in 10.0 mi West 28.8 mph 36.8 mph N/A   Overcast
5:35 AM 24.8 °F 10.0 °F 15.8 °F 69% 29.68 in 10.0 mi WSW 21.9 mph 35.7 mph N/A   Overcast
5:55 AM 24.8 °F 7.1 °F 14.0 °F 64% 29.68 in 10.0 mi West 33.4 mph 44.9 mph N/A   Overcast
6:15 AM 23.0 °F 5.4 °F 14.0 °F 68% 29.68 in 10.0 mi West 29.9 mph 40.3 mph N/A   Overcast
6:35 AM 23.0 °F 5.1 °F 15.8 °F 74% 29.69 in 10.0 mi West 31.1 mph 40.3 mph N/A Snow Light Snow
7:15 AM 23.0 °F 7.2 °F 17.6 °F 80% 29.72 in 10.0 mi West 23.0 mph 32.2 mph N/A Snow Light Snow
7:35 AM 24.8 °F 9.3 °F 15.8 °F 69% 29.72 in 10.0 mi West 24.2 mph 40.3 mph N/A Snow Light Snow
7:55 AM 23.0 °F 5.1 °F 14.0 °F 68% 29.74 in 10.0 mi West 31.1 mph 43.7 mph N/A   Overcast
8:15 AM 23.0 °F 6.3 °F 14.0 °F 68% 29.75 in 10.0 mi West 26.5 mph 40.3 mph N/A   Overcast
8:35 AM 23.0 °F 6.0 °F 15.8 °F 74% 29.75 in 10.0 mi West 27.6 mph 41.4 mph N/A   Overcast
9:15 AM 24.8 °F 7.9 °F 17.6 °F 74% 29.78 in 10.0 mi West 29.9 mph 39.1 mph N/A Snow Light Snow
9:35 AM 24.8 °F 8.4 °F 17.6 °F 74% 29.79 in 10.0 mi West 27.6 mph 38.0 mph N/A Snow Light Snow
9:55 AM 24.8 °F 8.1 °F 17.6 °F 74% 29.80 in 7.0 mi West 28.8 mph 40.3 mph N/A Snow Light Snow
10:15 AM 24.8 °F 6.8 °F 17.6 °F 74% 29.80 in 10.0 mi West 34.5 mph 44.9 mph N/A   Overcast
10:35 AM 26.6 °F 10.3 °F 17.6 °F 69% 29.81 in 10.0 mi West 29.9 mph 40.3 mph N/A Snow Light Snow
10:55 AM 24.8 °F 8.1 °F 17.6 °F 74% 29.81 in 10.0 mi West 28.8 mph 43.7 mph N/A Snow Light Snow
11:15 AM 26.6 °F 9.8 °F 15.8 °F 64% 29.81 in 10.0 mi West 32.2 mph 43.7 mph N/A   Overcast
11:35 AM 26.6 °F 10.3 °F 15.8 °F 64% 29.81 in 10.0 mi West 29.9 mph 43.7 mph N/A   Overcast
11:55 AM 26.6 °F 10.8 °F 15.8 °F 64% 29.81 in 10.0 mi West 27.6 mph 41.4 mph N/A   Overcast
12:15 PM 26.6 °F 10.8 °F 17.6 °F 69% 29.81 in 10.0 mi West 27.6 mph 35.7 mph N/A   Overcast
12:35 PM 26.6 °F 10.8 °F 15.8 °F 64% 29.82 in 10.0 mi West 27.6 mph 36.8 mph N/A   Overcast
12:55 PM 26.6 °F 11.1 °F 17.6 °F 69% 29.83 in 10.0 mi West 26.5 mph 34.5 mph N/A   Overcast
1:15 PM 24.8 °F 8.4 °F 15.8 °F 69% 29.84 in 10.0 mi West 27.6 mph 40.3 mph N/A   Overcast
1:35 PM 26.6 °F 9.8 °F 17.6 °F 69% 29.84 in 10.0 mi West 32.2 mph 38.0 mph N/A   Overcast
1:55 PM 24.8 °F 7.6 °F 15.8 °F 69% 29.84 in 10.0 mi West 31.1 mph 39.1 mph N/A   Overcast
2:15 PM 26.6 °F 12.4 °F 15.8 °F 64% 29.86 in 10.0 mi West 21.9 mph 35.7 mph N/A   Overcast
2:35 PM 26.6 °F 11.1 °F 15.8 °F 64% 29.86 in 10.0 mi West 26.5 mph 34.5 mph N/A   Overcast
2:55 PM 26.6 °F 12.4 °F 17.6 °F 69% 29.87 in 10.0 mi WSW 21.9 mph 29.9 mph N/A   Overcast
3:15 PM 24.8 °F 9.6 °F 17.6 °F 74% 29.89 in 10.0 mi West 23.0 mph 32.2 mph N/A   Overcast
3:35 PM 24.8 °F 9.6 °F 17.6 °F 74% 29.90 in 10.0 mi West 23.0 mph 31.1 mph N/A Snow Light Snow
3:55 PM 24.8 °F 9.6 °F 17.6 °F 74% 29.90 in 10.0 mi West 23.0 mph 33.4 mph N/A Snow Light Snow
4:15 PM 23.0 °F 7.2 °F 17.6 °F 80% 29.92 in 10.0 mi West 23.0 mph 26.5 mph N/A Snow Light Snow
4:35 PM 23.0 °F 7.2 °F 17.6 °F 80% 29.93 in 10.0 mi West 23.0 mph 32.2 mph N/A Snow Light Snow
4:55 PM 23.0 °F 7.2 °F 17.6 °F 80% 29.94 in 10.0 mi West 23.0 mph 31.1 mph N/A Snow Light Snow
5:15 PM 23.0 °F 8.0 °F 17.6 °F 80% 29.93 in 10.0 mi West 20.7 mph 32.2 mph N/A   Overcast
5:35 PM 23.0 °F 8.0 °F 17.6 °F 80% 29.93 in 10.0 mi West 20.7 mph 29.9 mph N/A Snow Light Snow
5:55 PM 23.0 °F 7.2 °F 17.6 °F 80% 29.93 in 10.0 mi West 23.0 mph 32.2 mph N/A Snow Light Snow
6:15 PM 23.0 °F 7.2 °F 17.6 °F 80% 29.94 in 10.0 mi West 23.0 mph 32.2 mph N/A Snow Light Snow
6:35 PM 23.0 °F 8.0 °F 17.6 °F 80% 29.95 in 10.0 mi West 20.7 mph 29.9 mph N/A Snow Light Snow
6:55 PM 23.0 °F 7.6 °F 19.4 °F 86% 29.95 in 10.0 mi West 21.9 mph 28.8 mph N/A   Overcast
7:15 PM 23.0 °F 7.2 °F 19.4 °F 86% 29.95 in 3.0 mi WSW 23.0 mph 29.9 mph N/A   Haze
7:35 PM 23.0 °F 7.6 °F 19.4 °F 86% 29.95 in 10.0 mi West 21.9 mph 31.1 mph N/A   Overcast
7:55 PM 23.0 °F 8.0 °F 19.4 °F 86% 29.96 in 10.0 mi West 20.7 mph 31.1 mph N/A   Overcast
8:15 PM 23.0 °F 8.7 °F 19.4 °F 86% 29.96 in 10.0 mi West 18.4 mph 25.3 mph N/A   Overcast
8:35 PM 24.8 °F 10.0 °F 19.4 °F 80% 29.96 in 10.0 mi West 21.9 mph 27.6 mph N/A   Overcast
8:55 PM 24.8 °F 10.7 °F 19.4 °F 80% 29.96 in 10.0 mi West 19.6 mph 26.5 mph N/A   Overcast
9:15 PM 24.8 °F 10.3 °F 19.4 °F 80% 29.96 in 10.0 mi West 20.7 mph 27.6 mph N/A   Overcast
9:35 PM 24.8 °F 9.0 °F 19.4 °F 80% 29.96 in 10.0 mi West 25.3 mph 31.1 mph N/A   Overcast
9:55 PM 24.8 °F 10.7 °F 19.4 °F 80% 29.97 in 10.0 mi West 19.6 mph 31.1 mph N/A   Overcast
10:15 PM 24.8 °F 9.3 °F 19.4 °F 80% 29.97 in 10.0 mi West 24.2 mph 32.2 mph N/A   Overcast
10:35 PM 24.8 °F 8.7 °F 19.4 °F 80% 29.97 in 10.0 mi West 26.5 mph 33.4 mph N/A   Overcast
10:55 PM 26.6 °F 11.4 °F 19.4 °F 74% 29.97 in 10.0 mi West 25.3 mph 34.5 mph N/A   Overcast
11:35 PM 24.8 °F 10.0 °F 19.4 °F 80% 29.99 in 10.0 mi West 21.9 mph 28.8 mph N/A   Overcast
11:55 PM 26.6 °F 12.0 °F 19.4 °F 74% 29.99 in 10.0 mi West 23.0 mph 33.4 mph N/A   Overcast